Weather History for KONP - April, 2013

Change the Weather History Date:

Wednesday, April 24, 2013

  Actual Average Record
Temperature  
Mean Temperature 54 °F -  
Max Temperature 68 °F 54 °F 68 °F (2013)
Min Temperature 39 °F 43 °F 35 °F (2004)
Degree Days  
Heating Degree Days 12    
Growing Degree Days 4 (Base 50)    
Moisture  
Dew Point 37 °F    
Average Humidity 59    
Maximum Humidity 100    
Minimum Humidity 23    
Precipitation  
Precipitation 0.00 in - - ()
Sea Level Pressure  
Sea Level Pressure 30.15 in    
Wind  
Wind Speed 8 mph (NNE)    
Max Wind Speed 18 mph    
Max Gust Speed 24 mph    
Visibility 10 miles    
Events      
Averages and records for this station are not official NWS values.
T = Trace of Precipitation, MM = Missing Value Source: NWS Daily Summary

Daily Weather History Graph

Daily Weather History Graph

Search for Another Location

Airport or City:

Trip Planner

Search our weather history database for the weather conditions in past years. The results will help you decide how hot, cold, wet, or windy it might be!

Date:

Astronomy

Apr. 24, 2013 Rise Set
Actual Time 6:16 AM PDT 8:12 PM PDT
Civil Twilight 5:45 AM PDT 8:44 PM PDT
Nautical Twilight 5:07 AM PDT 9:22 PM PDT
Astronomical Twilight 4:25 AM PDT 10:04 PM PDT
Moon 7:21 PM PDT (4/24) 5:26 AM PDT (4/24)
Length of Visible Light 14h 58m
Length of Day
13h 56m
Waxing Gibbous, 98% of the Moon is Illuminated
Apr 24
Waxing Gibbous
Apr 25
Full
May 2
Last Quarter
May 9
New
May 17
First Quarter

Hourly Weather History & Observations

Time (PDT) Temp. Windchill Dew Point Humidity Pressure Visibility Wind Dir Wind Speed Gust Speed Precip Events Conditions
12:15 AM 42.8 °F 40.1 °F 41.0 °F 93% 30.24 in 10.0 mi NNE 4.6 mph - N/A   Clear
12:35 AM 41.0 °F - 39.2 °F 93% 30.24 in 10.0 mi Calm Calm - N/A   Clear
12:55 AM 42.8 °F - 41.0 °F 93% 30.24 in 10.0 mi Calm Calm - N/A   Clear
1:15 AM 41.0 °F 37.1 °F 37.4 °F 87% 30.23 in 10.0 mi NE 5.8 mph - N/A   Clear
1:35 AM 41.0 °F - 41.0 °F 100% 30.23 in 10.0 mi Calm Calm - N/A   Clear
1:55 AM 39.2 °F 35.0 °F 37.4 °F 93% 30.23 in 10.0 mi ENE 5.8 mph - N/A   Clear
2:15 AM 41.0 °F 36.4 °F 39.2 °F 93% - 10.0 mi NE 6.9 mph - N/A   Clear
2:35 AM 41.0 °F 38.0 °F 39.2 °F 93% 30.21 in 10.0 mi ENE 4.6 mph - N/A   Clear
3:15 AM 39.2 °F 35.0 °F 37.4 °F 93% 30.21 in 10.0 mi ENE 5.8 mph - N/A   Clear
3:35 AM 42.8 °F 38.6 °F 37.4 °F 81% 30.20 in 10.0 mi ENE 6.9 mph - N/A   Clear
3:55 AM 42.8 °F 38.6 °F 37.4 °F 81% 30.20 in 10.0 mi NNE 6.9 mph - N/A   Clear
4:15 AM 42.8 °F 38.0 °F 35.6 °F 76% 30.20 in 10.0 mi ENE 8.1 mph - N/A   Clear
4:35 AM 46.4 °F 41.5 °F 37.4 °F 71% 30.20 in 10.0 mi East 10.4 mph - N/A   Clear
4:55 AM 46.4 °F 41.1 °F 35.6 °F 66% 30.20 in 10.0 mi East 11.5 mph - N/A   Clear
5:15 AM 46.4 °F 42.4 °F 35.6 °F 66% - 10.0 mi ENE 8.1 mph - N/A   Clear
5:35 AM 44.6 °F 39.7 °F 35.6 °F 71% 30.20 in 10.0 mi East 9.2 mph - N/A   Clear
5:55 AM 46.4 °F 42.4 °F 33.8 °F 62% 30.20 in 10.0 mi East 8.1 mph - N/A   Clear
6:15 AM 46.4 °F 42.4 °F 33.8 °F 62% 30.20 in 10.0 mi East 8.1 mph - N/A   Clear
6:35 AM 46.4 °F 41.9 °F 33.8 °F 62% 30.20 in 10.0 mi NE 9.2 mph - N/A   Clear
6:55 AM 48.2 °F - 33.8 °F 58% 30.20 in 10.0 mi NE 13.8 mph - N/A   Clear
7:15 AM 50.0 °F - 32.0 °F 50% 30.20 in 10.0 mi ENE 15.0 mph 20.7 mph N/A   Clear
7:35 AM 51.8 °F - 32.0 °F 47% 30.20 in 10.0 mi ENE 15.0 mph - N/A   Clear
7:55 AM 51.8 °F - 32.0 °F 47% 30.20 in 10.0 mi ENE 13.8 mph 19.6 mph N/A   Clear
8:15 AM 53.6 °F - 32.0 °F 44% 30.20 in 10.0 mi ENE 9.2 mph 18.4 mph N/A   Clear
8:35 AM 55.4 °F - 32.0 °F 41% 30.20 in 10.0 mi ENE 6.9 mph - N/A   Clear
8:55 AM 57.2 °F - 32.0 °F 38% 30.20 in 10.0 mi East 11.5 mph 17.3 mph N/A   Clear
9:15 AM 57.2 °F - 32.0 °F 38% 30.19 in 10.0 mi East 12.7 mph 18.4 mph N/A   Clear
9:35 AM 59.0 °F - 32.0 °F 36% 30.20 in 10.0 mi ENE 8.1 mph - N/A   Clear
9:55 AM 60.8 °F - 32.0 °F 34% 30.20 in 10.0 mi ENE 6.9 mph - N/A   Clear
10:15 AM 62.6 °F - 32.0 °F 32% 30.19 in 10.0 mi NE 5.8 mph - N/A   Clear
10:35 AM 64.4 °F - 32.0 °F 30% 30.19 in 10.0 mi ENE 15.0 mph 18.4 mph N/A   Clear
10:55 AM 66.2 °F - 32.0 °F 28% 30.19 in 10.0 mi ENE 10.4 mph 17.3 mph N/A   Clear
11:15 AM 68.0 °F - 30.2 °F 24% 30.19 in 10.0 mi ENE 8.1 mph 18.4 mph N/A   Clear
11:35 AM 68.0 °F - 28.4 °F 23% 30.18 in 10.0 mi East 9.2 mph - N/A   Clear
11:55 AM 66.2 °F - 32.0 °F 28% 30.18 in 10.0 mi North 5.8 mph - N/A   Clear
12:15 PM 64.4 °F - 32.0 °F 30% 30.16 in 10.0 mi NNW 15.0 mph - N/A   Clear
12:35 PM 64.4 °F - 33.8 °F 32% 30.16 in 10.0 mi NNW 11.5 mph - N/A   Clear
12:55 PM 64.4 °F - 37.4 °F 37% 30.16 in 10.0 mi NNW 13.8 mph - N/A   Clear
1:15 PM 62.6 °F - 37.4 °F 39% 30.16 in 10.0 mi North 10.4 mph - N/A   Clear
1:35 PM 64.4 °F - 39.2 °F 40% 30.14 in 10.0 mi North 8.1 mph - N/A   Clear
1:55 PM 64.4 °F - 39.2 °F 40% 30.14 in 10.0 mi NNW 11.5 mph - N/A   Clear
2:15 PM 64.4 °F - 39.2 °F 40% - 10.0 mi North 11.5 mph 20.7 mph N/A   Clear
2:35 PM 62.6 °F - 41.0 °F 45% 30.12 in 10.0 mi NNW 15.0 mph 18.4 mph N/A   Clear
2:55 PM 62.6 °F - 41.0 °F 45% 30.12 in 10.0 mi North 15.0 mph 23.0 mph N/A   Clear
3:15 PM 62.6 °F - 42.8 °F 48% 30.11 in 10.0 mi North 17.3 mph 20.7 mph N/A   Clear
3:35 PM 62.6 °F - 42.8 °F 48% 30.10 in 10.0 mi North 15.0 mph 20.7 mph N/A   Clear
3:55 PM 64.4 °F - 42.8 °F 45% 30.09 in 10.0 mi NNW 16.1 mph 20.7 mph N/A   Clear
4:15 PM 62.6 °F - 42.8 °F 48% 30.08 in 10.0 mi NNW 17.3 mph - N/A   Clear
4:35 PM 62.6 °F - 42.8 °F 48% 30.07 in 10.0 mi NNW 18.4 mph 23.0 mph N/A   Clear
4:55 PM 62.6 °F - 42.8 °F 48% 30.07 in 10.0 mi North 18.4 mph 24.2 mph N/A   Clear
5:15 PM 60.8 °F - 42.8 °F 52% 30.06 in 10.0 mi North 17.3 mph 23.0 mph N/A   Clear
5:35 PM 60.8 °F - 42.8 °F 52% 30.06 in 10.0 mi North 17.3 mph 24.2 mph N/A   Clear
5:55 PM 60.8 °F - 42.8 °F 52% 30.06 in 10.0 mi North 13.8 mph 23.0 mph N/A   Clear
6:15 PM 59.0 °F - 42.8 °F 55% 30.05 in 10.0 mi North 17.3 mph 24.2 mph N/A   Clear
6:35 PM 59.0 °F - 41.0 °F 51% 30.05 in 10.0 mi North 13.8 mph 24.2 mph N/A   Clear
6:55 PM 57.2 °F - 41.0 °F 55% 30.05 in 10.0 mi North 16.1 mph 21.9 mph N/A   Clear
8:15 PM 53.6 °F - 41.0 °F 62% 30.06 in 10.0 mi NNW 10.4 mph - N/A   Clear
8:35 PM 51.8 °F - 41.0 °F 67% 30.06 in 10.0 mi NNW 8.1 mph - N/A   Clear
8:55 PM 50.0 °F - 41.0 °F 71% 30.06 in 10.0 mi NNW 8.1 mph - N/A   Clear
9:15 PM 50.0 °F - 41.0 °F 71% 30.06 in 10.0 mi North 3.5 mph - N/A   Clear
9:35 PM 48.2 °F - 41.0 °F 76% 30.07 in 10.0 mi Calm Calm - N/A   Clear
9:55 PM 44.6 °F - 39.2 °F 81% 30.06 in 10.0 mi Calm Calm - N/A   Clear
10:15 PM 44.6 °F - 39.2 °F 81% 30.06 in 10.0 mi Calm Calm - N/A   Clear
10:35 PM 42.8 °F - 37.4 °F 81% 30.06 in 10.0 mi Calm Calm - N/A   Clear
10:55 PM 42.8 °F 41.1 °F 39.2 °F 87% 30.06 in 10.0 mi East 3.5 mph - N/A   Clear
11:15 PM 44.6 °F - 41.0 °F 87% 30.06 in 10.0 mi Calm Calm - N/A   Clear
11:35 PM 44.6 °F - 39.2 °F 81% - 10.0 mi Calm Calm - N/A   Clear
11:55 PM 44.6 °F - 39.2 °F 81% 30.06 in 7.0 mi Calm Calm - N/A   Clear